Regional Weather Roundup
Issued by NWS Wakefield, VA

Home | Current Version | Previous Version | Text Only | Print | Product List | Glossary Off
Versions: 1 2 3 4 5 6 7 8 9 10 11 12 13 14 15 16 17 18 19 20 21 22 23 24 25 26 27 28 29 30 31 32 33 34 35 36 37 38 39 40 41 42 43 44 45 46 47 48 49 50

000
ASUS41 KAKQ 010210
RWRAKQ

REGIONAL WEATHER ROUNDUP
NATIONAL WEATHER SERVICE WAKEFIELD VA
900 PM EST SAT FEB 28 2015

Note: "fair" indicates few or no clouds below 12,000 feet with no
significant weather and/or obstructions to visibility. * = Denotes
station may not report precipitation (e.g., rain,snow,etc.),
thunder or fog.

VAZ042-051-052>054-056-010300-
NORTHERN VIRGINIA

CITY           SKY/WX    TMP DP  RH WIND       PRES   REMARKS
WASH NATIONAL  CLEAR     27   8  44 CALM      30.79R
DULLES         FAIR      18   5  57 SE3       30.75F
FORT BELVOIR   CLEAR     22  11  61 E2        30.78R
QUANTICO       CLEAR     27  13  55 E3        30.79S
FREDERICKSBRG* CLEAR     26  15  63 CALM      30.77S
STAFFORD*      FAIR      22  10  62 CALM      30.80F
WARRENTON      CLEAR     20  16  84 CALM      30.74F
CULPEPER*      CLEAR     19  14  79 CALM      30.75S
MANASSAS*      CLEAR     19  14  79 CALM      30.77S
LEESBURG*      CLEAR     23   9  54 CALM      30.75F
WINCHESTER     CLEAR     21   5  49 E3        30.70S
FRONT ROYAL*   FAIR      23   7  50 CALM      30.70R
LURAY*         FAIR      27  14  59 CALM      30.69R
$$

VAZ048-049-060>072-079>083-010300-
CENTRAL AND SOUTH CENTRAL VIRGINIA

CITY           SKY/WX    TMP DP  RH WIND       PRES   REMARKS
RICHMOND       MOCLDY    27  13  55 E3        30.76R
CHESTERFIELD*  MOCLDY    30   5  34 SE6       30.76S
PETERSBURG*    PTCLDY    29  17  59 E5        30.76R
HANOVER        CLEAR     27  10  49 E5        30.77S
TAPPAHANNOCK*  CLEAR     24   9  52 CALM      30.79S
QUINTON*       FAIR      26  15  63 E5        30.77S
CHARLOTTSVILLE CLEAR     25   8  48 N3        30.73R
GORDONSVILLE*  FAIR      20  12  72 CALM      30.74R
ORANGE*        CLEAR     21  16  79 CALM      30.76R
LOUISA*        CLEAR     21  10  63 CALM      30.73R
BUMPASS*       FAIR      25  10  53 CALM      30.74S
FARMVILLE*     CLOUDY    31  12  46 CALM      30.73R
CREWE*         FAIR      26  14  60 CALM      30.73R
FORT PICKETT*  FAIR      27  11  52 E5        30.72S
CHASE CITY*    FAIR      31  14  48 CALM      30.72R
CLARKSVILLE*   FAIR      32  16  51 CALM      30.71S
SOUTH HILL*    PTCLDY    28  12  51 CALM      30.79R
LAWRENCEVILLE* FAIR      29  12  49 CALM      30.74R
EMPORIA*       MOCLDY    28  18  64 NE5       30.78R
$$

VAZ088>098-010300-
SOUTHEAST VIRGINIA

CITY           SKY/WX    TMP DP  RH WIND       PRES   REMARKS
NORFOLK        PTCLDY    28  17  63 NE8       30.76F
VIRGINIA BEACH MOCLDY    29  17  61 NE7       30.75F
NORFOLK NAVAL  MOCLDY    30  18  60 NE7       30.77F
WEST POINT*    PTCLDY    26  14  61 CALM      30.80S
SALUDA*        FAIR      20  15  79 CALM      30.78S
NEWPORT NEWS   MOCLDY    26  17  68 E6        30.76F
LANGLEY AFB    PTCLDY    26  18  73 E7        30.76F
FORT EUSTIS    MOCLDY    27  18  70 E3        30.75F
WILLIAMSBURG*  PTCLDY    28  19  69 CALM      30.78S
HR EXEC AP*    FAIR      25  18  74 CALM      30.78F
FRANKLIN*      MOCLDY    27  18  69 E5        30.78R
WAKEFIELD      MOCLDY    28  14  55 CALM      30.77S
$$

VAZ020-022-025-037-045-010300-
WEST CENTRAL AND SOUTHWEST VIRGINIA

CITY           SKY/WX    TMP DP  RH WIND       PRES   REMARKS
STAUNTON*      CLEAR     20  11  68 CALM      30.68S
WAYNESBORO*    FAIR      24   9  53 SE5       30.66R
HOT SPRINGS VA CLOUDY    21  10  64 CALM      30.47F
LYNCHBURG      CLOUDY    30  14  51 E3        30.70S
DANVILLE       CLEAR     27  14  58 CALM      30.71R
SOUTH BOSTON*  FAIR      28  14  56 CALM      30.72R
MARTINSVILLE   CLEAR     27  18  69 CALM      30.71S
ROANOKE        CLOUDY    30  13  49 SE8       30.68F
BLACKSBURG     MOCLDY    26  13  57 E6        30.63S
DUBLIN*        CLEAR     28  18  67 CALM      30.60S
MARION*        CLEAR     30  18  61 E8        30.56F
HILLSVILLE*    CLEAR     25  16  68 SE5       30.56S
RICHLANDS*     FAIR      34  20  56 SE8       30.46F
WISE*          CLEAR     36  21  55 SE3       30.44F
ABINGDON*      CLOUDY    37  24  58 E13       30.49S
$$

MDZ021>025-VAZ099-100-010300-
SOUTHERN MARYLAND AND THE DELMARVA PENINSULA

CITY           SKY/WX    TMP DP  RH WIND       PRES   REMARKS
PATUXENT RIVER FAIR      19   9  65 CALM      30.79R
BAY BRIDGE APT   N/A     25   9  50 CALM      30.79F
LEONARDTOWN    PTCLDY    21  10  63 CALM      30.80R
DOVER          CLEAR     21  10  62 SW3       30.79S
GEORGETOWN     CLEAR     19  10  68 CALM      30.79S
EASTON         NOT AVBL
CAMBRIDGE      CLEAR     23  14  68 CALM      30.79S
SALISBURY      FAIR      23  12  62 CALM      30.79R
OCEAN CITY     CLEAR     17  12  80 NW3       30.80R
WALLOPS ISLAND PTCLDY    21  15  78 CALM      30.80R
ACCOMACK*      PTCLDY    23  16  74 CALM      30.79S
$$

NCZ012>017-030>032-010300-
NORTH CENTRAL AND EASTERN NORTH CAROLINA

CITY           SKY/WX    TMP DP  RH WIND       PRES   REMARKS
ROANOKE RAPIDS FAIR      32  18  55 E3        30.75R
RALEIGH        MOCLDY    30  16  56 NE3       30.71R
ELIZABETH CITY CLEAR     29  20  69 N9        30.76S
AHOSKIE*       MOCLDY    29  13  52 NE3       30.76S
EDENTON*       CLEAR     29  22  74 NE5       30.75F
CURRITUCK*     CLEAR     30  19  63 NE7       30.76F
KILL DEVIL HLS CLEAR     33  27  79 N6        30.72S
MANTEO         CLEAR     34  27  75 N12       30.73F
CAPE HATTERAS  PTCLDY    35  30  82 NE12G20   30.70S
TARBORO*       FAIR      32  20  60 E6        30.74S
GOLDSBORO      NOT AVBL
WASHINGTON     CLEAR     29  19  66 NE6       30.74F
GREENVILLE     PTCLDY    32  21  64 E8        30.72S
NEW BERN       CLOUDY    34  20  56 NE12      30.72F
WILMINGTON     CLOUDY    40  23  50 NE10      30.68R
$$

VAZ048-010300-
ELSEWHERE

CITY           SKY/WX    TMP DP  RH WIND       PRES   REMARKS
HARRISBURG PA  CLEAR     17   4  56 E3        30.75R
BALTIMORE      CLEAR     20   6  55 CALM      30.78S
ANNAPOLIS      CLEAR     22  12  65 CALM      30.79S
ANDREWS AFB    CLEAR     22   9  57 SE5       30.76S
PHILADELPHIA   FAIR      26   7  44 SW9       30.79R
HENDERSON NC   CLEAR     28  17  64 CALM      30.71R
GREENSBORO     PTCLDY    31  15  52 NE6       30.67R
ROCKY MOUNT    CLEAR     31  17  56 NE5       30.72S
$$

VAZ100-010300-
MARINE

STATION/POSITION TIME  TEMP    WIND        PRES    WAVE   SWELL
                       AIR SEA DIR/SP/G            HT/PER HT/PER
                 (UTC) (F)     (DEG/KT/KT) (MB)    (FT/S) (FT/S)
BRANDYWINE LGT   0200   26 29  270/  8/  9 1042.9R
CAPE MAY NJ      0200   26 32  290/  5/  6 1042.4S
LEWES DE         0200   22 30  200/  4/  5 1042.7F
15NM E FENWICK I 0200   27 34              1042.7R   2/10
OCEAN-CITY-INLET 0200   26 32   40/  1/  2 1042.5R
WACHAPREAGUE VA  0200   24 34  350/  2/  2 1042.2F
THOMAS POINT MD  0200   27 31  150/  4/  5 1043.5F
COVE POINT MD    0200   24      CALM  /  1 1042.5R
SOLOMONS ISLAND  0200      33                N/A
BISHOPS HEAD MD  0200   27 33   30/  6/  7 1042.1R
CAMBRIDGE MD     0200   23 32   CALM  /  2 1042.5S
LEWISETTA VA     0200             CALM     1042.3S
RAPPAHANNOCK LGT 0200           50/  7/  7 1042.7F
STINGRAY PT      0200   27     100/  6/  8   N/A
YORK RVR RNG VA  0200   28      80/  7/  9 1041.5F
YORKTOWN VA      0200   28 33   90/  9/ 11 1041.8F
DOMINION TERM VA 0200   27      50/  5/  8 1041.8F
KIPTOPEKE VA     0200           60/  3/  4   N/A
CHES BAY BRIDGE  0200   29 33   40/  9/ 11 1041.6F
CAPE HENRY VA    0200   29      50/ 11/ 12 1040.4F
CHESAPEAKE LGHT  0100   30      50/ 13/ 14 1042.2S
WILLOUBY STN VA  0200           70/  9/ 10 1042.1F
S CRANEY ISL VA  0200           60/  6/  8 1041.8F
CAPE HENRY BUOY  0200      35                N/A     3/ 6   2/11
1ST LANDING BUOY 0200   29      60/ 10/ 12 1041.7S
OFFSHORE WE BUOY 0200      36                N/A     4/10   3/10
64NM E OF VA BCH 0200   42 58   50/ 10/ 16 1040.2R   4/10   3/10
DUCK PIER NC     0200   33 34   20/ 15/ 17 1040.0F
44100 DUCK FRF   0200      37                N/A     4/10   2/11
44056 DUCK FRF   0200      34                N/A     4/10   2/11
OREGON INLET NC  0200   35 38  360/ 11/ 15 1040.3S
HATTERAS NC      0200   36 40   20/ 18/ 22 1039.7R
CAPE LOOKOUT NC  0100   36      20/ 16/ 18 1038.8R
$$



USA.gov is the U.S. government's official web portal to all federal, state and local government web resources and services.